Weather in Maraksa Pervaya

Russia / Tomsk District     58°23′06″N   83°04′40″E
temp.,
°C
wind,
m/s
gust,
m/s
humid.,
%
clouds,
%
prec.,
mm/h
press.,
hPa
HPBL,
m
14 may, fri
fri1401:00+8nw4107597 0.0 1016514
04:00+8nnw4877100 0.0 1017841
07:00+5nnw587235 0.0 1020919
10:00+8nnw584459 0.0 10211199
13:00+11nw572985 0.0 10211441
16:00+13wnw572598 0.0 10201660
19:00+9ne1258100 0.3 102076
22:00+9s3960100 0.0 1018241
15 may, sat
sat1501:00+11sw616515 0.0 1015620
04:00+10wsw5157393 0.3 1014528
07:00+11wsw4127524 0.4 1014503
10:00+17w467037 0.1 1013705
13:00+21w4654100 0.1 10121525
16:00+12nne5993100 2.6 1013306
19:00+13nne467632 3.3 1014539
22:00+9ene239324 0.0 101685
16 may, sun
sun1601:00+8ese22967 0.0 101550
04:00+7ese2597100 0.0 1013136
07:00+7ene4897100 6.5 1011311
10:00+7ene4996100 8.8 1011393
13:00+9ne4587100 8.8 1013589
16:00+10ne3479100 0.0 1014764
19:00+9ne337773 0.0 1016656
22:00+7ne238399 0.0 1017137
17 may, mon
mon1701:00+5ene118997 0.0 101712
04:00+6ene0085100 0.0 101719
07:00+7wsw0183100 0.0 101791
10:00+8s117758 0.0 1017325
13:00+13sw1260100 0.0 1016952
16:00+15sw2459100 0.1 10141069
19:00+12se2682100 0.1 1012224
22:00+11se2796100 2.1 1009359
18 may, tue
tue1801:00+10ese2497100 3.3 1007199
04:00+10s0199100 0.0 100422
07:00+10nne2399100 0.9 1004131
10:00+10ne3592100 0.7 1005405
13:00+9ne3592100 0.8 1007553
16:00+8ne4689100 0.0 1009481
19:00+8ne368590 0.0 1009514
22:00+7nne249285 0.0 1010129